EW5862 Weather Reports


Display with metric or nautical units.
time (UTC)temp
F
wind
direction
speed
MPH
gust
MPH
rain 1hr
in
rain 24hr
in
rain mn
in
humidity
%
barometer
mb
20260502213516 58 0.0 0.0 0.00 0.00 0.00 84 1015.9
20260502212517 58 0.0 0.0 0.00 0.00 0.00 84 1015.8
20260502211516 58 338 1.0 3.0 0.00 0.00 0.00 84 1015.9
20260502210517 57 0.0 0.0 0.00 0.00 0.00 84 1016.2
20260502205516 57 0.0 0.0 0.00 0.00 0.00 84 1016.0
20260502204516 57 0.0 0.0 0.00 0.00 0.00 84 1015.8
20260502203516 57 0.0 2.0 0.00 0.00 0.00 84 1015.8
20260502202556 57 338 1.0 3.0 0.00 0.00 0.00 84 1015.5
20260502201556 58 338 1.0 2.0 0.00 0.00 0.00 84 1015.3
20260502200516 58 338 3.0 7.0 0.00 0.00 0.00 84 1015.2
20260502195516 58 338 1.0 4.0 0.00 0.00 0.00 83 1015.3
20260502194516 59 338 1.0 3.0 0.00 0.00 0.00 83 1015.2
20260502193537 59 338 2.0 7.0 0.00 0.00 0.00 83 1014.9
20260502192516 59 338 1.0 3.0 0.00 0.00 0.00 82 1015.3
20260502191516 60 338 3.0 5.0 0.00 0.00 0.00 82 1015.1
20260502190537 60 338 1.0 2.0 0.00 0.00 0.00 82 1015.1
20260502185516 61 338 2.0 5.0 0.00 0.00 0.00 82 1015.0
20260502184516 61 338 2.0 5.0 0.00 0.00 0.00 82 1015.1
20260502183516 62 0.0 0.0 0.00 0.00 0.00 81 1015.0
20260502182516 62 0.0 2.0 0.00 0.00 0.00 81 1015.1
20260502181516 62 338 2.0 4.0 0.00 0.00 0.00 81 1015.2
20260502180516 63 338 3.0 5.0 0.00 0.00 0.00 80 1015.0
20260502170516 63 338 1.0 3.0 0.00 0.00 0.00 79 1015.6
20260502163516 63 338 1.0 3.0 0.00 0.00 0.00 78 1015.9
20260502162516 63 338 1.0 2.0 0.00 0.00 0.00 78 1016.0
20260502161516 63 338 2.0 4.0 0.00 0.00 0.00 77 1015.8
20260502160516 63 338 2.0 7.0 0.00 0.00 0.00 78 1016.2
20260502151516 63 338 9.0 13.0 0.00 0.00 0.00 77 1016.5
20260502150516 63 338 6.0 9.0 0.00 0.00 0.00 77 1016.5
20260502130516 65 338 6.0 10.0 0.00 0.00 0.00 70 1018.1
20260502123516 66 338 5.0 12.0 0.00 0.00 0.00 69 1017.8
20260502122516 66 338 7.0 13.0 0.00 0.00 0.00 68 1018.0
20260502121516 67 338 5.0 10.0 0.00 0.00 0.00 69 1018.2
20260502120536 67 338 6.0 13.0 0.00 0.00 0.00 66 1018.3
20260502115515 68 338 4.0 10.0 0.00 0.00 0.00 66 1018.5
20260502114516 67 338 6.0 11.0 0.00 0.00 0.00 67 1018.4
20260502113515 67 338 5.0 11.0 0.00 0.00 0.00 67 1018.5
20260502112515 66 338 3.0 8.0 0.00 0.00 0.00 69 1018.7
20260502111515 66 338 4.0 10.0 0.00 0.00 0.00 71 1018.8
20260502110516 66 338 4.0 9.0 0.00 0.00 0.00 71 1018.9
20260502105515 65 338 4.0 9.0 0.00 0.00 0.00 73 1019.0
20260502104515 65 338 7.0 11.0 0.00 0.00 0.00 73 1019.0
20260502103515 65 338 10.0 15.0 0.00 0.00 0.00 72 1019.1
20260502102515 65 338 8.0 12.0 0.00 0.01 0.00 72 1018.9
20260502101516 64 338 5.0 9.0 0.00 0.01 0.00 74 1019.1
20260502100516 63 338 8.0 10.0 0.00 0.01 0.00 74 1019.3
20260502091517 64 338 8.0 13.0 0.00 0.01 0.00 72 1019.5
20260502090517 64 338 6.0 11.0 0.00 0.01 0.00 74 1019.5
20260502071517 60 338 2.0 4.0 0.00 0.02 0.00 83 1019.5
20260502070517 59 338 4.0 7.0 0.00 0.02 0.00 83 1019.2
20260502065517 59 338 4.0 7.0 0.00 0.02 0.00 84 1019.1
20260502064517 59 338 4.0 7.0 0.00 0.02 0.00 84 1019.5
20260502063517 59 338 4.0 7.0 0.00 0.02 0.00 84 1019.7
20260502062517 58 338 3.0 4.0 0.00 0.02 0.00 84 1019.6
20260502061517 58 338 2.0 4.0 0.00 0.02 0.00 84 1019.4
20260502060517 58 315 2.0 3.0 0.00 0.02 0.00 84 1019.4
20260502055517 58 338 1.0 3.0 0.00 0.02 0.00 84 1019.2
20260502054517 58 338 2.0 4.0 0.00 0.02 0.00 84 1019.4
20260502053517 58 338 3.0 7.0 0.00 0.02 0.00 84 1019.4
20260502052537 58 338 1.0 2.0 0.00 0.02 0.00 84 1019.4
20260502051517 58 338 2.0 5.0 0.00 0.02 0.00 84 1019.5
20260502050517 58 338 2.0 4.0 0.00 0.02 0.00 84 1019.5
20260502045517 58 338 3.0 5.0 0.00 0.02 0.00 84 1019.5
20260502044537 58 0.0 0.0 0.00 0.02 0.00 84 1019.4
20260502043517 58 0.0 0.0 0.00 0.02 0.00 84 1019.6
20260502042517 58 0.0 0.0 0.00 0.02 0.00 84 1019.5
20260502041517 58 0.0 0.0 0.00 0.02 0.00 84 1019.5
20260502040537 58 0.0 0.0 0.00 0.02 0.00 84 1019.6
20260502035517 58 0.0 0.0 0.00 0.02 0.00 84 1019.7
20260502034517 58 0.0 0.0 0.00 0.02 0.00 84 1019.9
20260502033517 58 0.0 0.0 0.00 0.02 0.00 84 1019.9
20260502032517 58 0.0 0.0 0.00 0.02 0.00 84 1020.0
20260502031517 58 0.0 0.0 0.00 0.02 0.00 84 1020.0
20260502030517 58 0.0 0.0 0.00 0.02 0.00 84 1020.0
20260502025517 58 0.0 0.0 0.00 0.02 0.00 84 1019.9
20260502024517 58 0.0 0.0 0.00 0.02 0.00 84 1019.7
20260502023537 58 0.0 0.0 0.00 0.02 0.00 84 1019.7
20260502022517 58 0.0 2.0 0.00 0.02 0.00 84 1019.7
20260502021517 58 338 2.0 4.0 0.00 0.02 0.00 84 1019.8
20260502020517 58 338 3.0 5.0 0.00 0.02 0.00 84 1019.7
20260502015517 58 338 1.0 3.0 0.00 0.02 0.00 84 1020.0
20260502014516 58 0.0 0.0 0.00 0.02 0.00 84 1019.9
20260502013517 59 338 1.0 3.0 0.00 0.02 0.00 84 1020.1
20260502012536 59 338 1.0 3.0 0.00 0.02 0.00 84 1020.1
20260502011517 59 0.0 0.0 0.00 0.02 0.00 84 1020.2
20260502010517 59 0.0 0.0 0.00 0.02 0.00 84 1020.1
20260502005517 59 0.0 0.0 0.00 0.02 0.00 84 1020.4
20260502004517 59 0.0 0.0 0.00 0.02 0.00 84 1020.1
20260502003516 59 0.0 0.0 0.00 0.02 0.00 84 1020.2
20260502002517 60 0.0 0.0 0.00 0.02 0.00 84 1020.5
20260502001517 60 338 1.0 3.0 0.00 0.02 0.00 84 1020.6
20260502000517 60 338 2.0 4.0 0.00 0.02 0.00 84 1020.7
20260501235517 60 338 2.0 4.0 0.00 0.02 0.00 84 1020.7
20260501234516 60 338 2.0 4.0 0.00 0.02 0.00 84 1020.7
20260501233517 60 338 2.0 4.0 0.00 0.02 0.00 84 1020.8
20260501232517 60 338 2.0 4.0 0.00 0.02 0.00 84 1020.9
20260501231516 60 338 2.0 3.0 0.00 0.02 0.00 84 1021.0
20260501230517 60 338 2.0 4.0 0.00 0.02 0.00 84 1020.9
20260501225516 60 338 2.0 4.0 0.00 0.02 0.00 84 1020.8
20260501224516 60 338 3.0 4.0 0.00 0.02 0.00 84 1020.6
20260501223516 60 338 3.0 5.0 0.00 0.02 0.00 84 1020.7
20260501222516 60 338 1.0 3.0 0.00 0.02 0.00 84 1020.6
20260501221516 60 338 3.0 7.0 0.00 0.02 0.00 84 1020.8
20260501220517 60 338 2.0 4.0 0.00 0.02 0.00 84 1020.7
20260501215516 60 338 5.0 8.0 0.00 0.02 0.02 84 1020.7
20260501214536 60 338 2.0 4.0 0.00 0.02 0.02 84 1021.0